Welcome to the New NWS' Forecast!
Most changes are behind the scenes, but click here for differences you might notice.
Latest weather observations around

Seattle, Seattle-Tacoma International Airport (KSEA)

Using International System of Units (Switch to English Units)
Date/ Time (PST) Wind (kph) Vis. (km) Weather Sky Cond. Temp (°C) Rel. Humidity Wind Chill (°C) Heat Index (°C) Pressure Precip. (cm)
Air Dwpt 6 hour Altimeter (hPa) Sea level (hPa) 1 hr 3 hr 6 hr
Max Min
Nov 16 13:53 N 18 16.09 Mostly Cloudy BKN012 BKN040 11 8     83%     1023.4 1024.1      
Nov 16 12:53 N 21 16.09 Cloudy FEW007 OVC011 12 9     83%     1023.4 1024.1      
Nov 16 11:53 N 22 16.09 Mostly Cloudy FEW006 BKN010 BKN050 13 10     83%     1023.7 1024.3      
Nov 16 11:38 N 21 16.09 Cloudy FEW006 OVC010 12 10     86%     1023.7        
Nov 16 10:53 N 21 16.09 Cloudy FEW005 OVC008 12 9     86%     1024.1 1024.7      
Nov 16 10:07 N 15 8.05 Clear   11 9     89%     1024.1        
Nov 16 09:53 N 13 6.44 Clear   11 9     89%     1024.1 1024.8     0
Nov 16 08:53 N 13 4.83 Fog/Mist OVC003 11 9     92%     1023.7 1024.3      
Nov 16 08:08 N 13 3.22 Fog/Mist OVC003 11 9     92%     1023.7        
Nov 16 07:53 N 11 1.61 Fog/Mist OVC002 11 10     96%     1023.4 1024.1 0    
Nov 16 07:32 N 11 0.4 Fog VV001 11 10     96%     1023.4   0    
Nov 16 06:53 NNW 9 0.4 Light Rain and Fog/Mist OVC002 11 10     96%     1023 1023.7 0 0  
Nov 16 05:53 WSW 5 0.4 Fog OVC002 11 10     93%     1023 1023.5 0    
Nov 16 05:43 W 8 0.4 Light Drizzle and Fog/Mist OVC002 11 10     93%     1022.7   0    
Nov 16 05:12 Calm 3.22 Light Rain and Fog/Mist OVC002 11 10     93%     1023   0    
Nov 16 04:53 Calm 4.83 Light Rain and Fog/Mist OVC002 11 10     93%     1023 1023.6 0    
Nov 16 03:53 S 8 8.05 Clear   11 10     93%     1022.7 1023.2 0   0
Nov 16 02:53 S 11 6.44 Light Rain and Fog/Mist OVC004 11 10     93%     1022.7 1023.2 0    
Nov 16 02:13 S 8 6.44 Light Rain and Fog/Mist BKN004 OVC013 11 10     93%     1022.7   0    
Nov 16 01:53 SSE 15 4.83 Light Rain and Fog/Mist FEW005 OVC011 11 10     93%     1022.4 1022.8 0    
Nov 16 00:53 SSE 11 16.09 Cloudy OVC012 12 8     77%     1022.7 1023.3      
Nov 15 23:53 S 21 16.09 Cloudy OVC014 12 8     74%     1022.4 1023      
Nov 15 22:53 S 13 16.09 Cloudy OVC015 12 7     72%     1022.7 1023.3      
Nov 15 21:53 S 21 16.09 Cloudy OVC016 12 7     72%     1022.7 1023.2      
Nov 15 20:53 SSW 22 16.09 Cloudy BKN019 OVC060 12 7     72%     1022.7 1023.3      
Nov 15 19:53 S 17 16.09 Cloudy BKN021 OVC070 12 7     71%     1023 1023.7      
Nov 15 18:53 S 22 16.09 Cloudy OVC021 12 7     72%     1023.4 1023.8      
Nov 15 17:53 S 13 16.09 Cloudy OVC024 12 7     72%     1023.7 1024.4      
Nov 15 16:53 SSE 11 16.09 Cloudy BKN027 OVC120 12 7     74%     1024.1 1024.7      
Nov 15 16:24 S 8 16.09 Cloudy BKN027 OVC120 12 7     72%     1024.4        
Nov 15 15:53 SSW 8 16.09 Cloudy FEW024 BKN030 OVC140 12 7     72%     1024.4 1025      
Nov 15 14:53 SSW 15 16.09 Mostly Cloudy FEW026 BKN140 BKN250 12 7     72%     1024.7 1025.3      
Nov 15 13:53 WSW 8 16.09 Mostly Cloudy FEW018 BKN080 BKN200 13 7     69%     1025.4 1025.9      
Nov 15 12:53 SW 13 16.09 Cloudy FEW026 BKN080 OVC200 12 7     72%     1025.7 1026.5      
Nov 15 11:53 11 16.09 Mostly Cloudy SCT034 BKN100 BKN240 12 7     72%     1026.1 1026.9      
Nov 15 10:53 SSW 13 16.09 Partly Cloudy FEW015 SCT034 SCT200 12 7     74%     1027.1 1027.6      
Nov 15 09:53 S 9 16.09 Mostly Cloudy FEW024 BKN032 BKN200 11 7     79%     1027.1 1027.9      
Nov 15 09:46 S 9 16.09 Mostly Cloudy FEW024 BKN032 BKN200 11 7     77%     1027.1        
Nov 15 08:53 S 8 16.09 Mostly Cloudy FEW023 BKN029 10 7     83%     1027.4 1028.3      
Nov 15 08:40 S 8 16.09 Cloudy FEW023 OVC029 10 7     83%     1027.8        
Nov 15 07:53 S 5 16.09 Mostly Cloudy FEW024 BKN032 9 7     86% 9   1027.8 1028.6      
Nov 15 06:53 SE 11 16.09 Mostly Cloudy FEW012 SCT024 BKN031 9 7     86% 8   1027.8 1028.6      
Nov 15 06:41 SE 15 16.09 Mostly Cloudy FEW012 SCT023 BKN031 10 7     83%     1027.8        
Nov 15 05:53 S 8 16.09 Mostly Cloudy FEW012 BKN022 BKN031 9 8     90% 8   1028.5 1029      
Nov 15 05:47 S 8 16.09 Mostly Cloudy FEW012 BKN022 BKN031 9 8     93% 8   1028.1        
Nov 15 05:24 Calm 14.48 Cloudy FEW015 SCT020 OVC031 9 8     90%     1028.5        
Nov 15 04:53 Calm 12.87 Cloudy FEW014 BKN019 OVC029 10 8     89%     1028.5 1029.1      
Nov 15 03:53 SW 8 11.27 Cloudy SCT015 BKN027 OVC042 10 8     89%     1028.5 1029.1 0   0
Nov 15 02:53 S 5 8.05 Light Rain and Fog/Mist OVC015 10 8     89%     1028.8 1029.4 0    
Nov 15 01:53 SSW 8 16.09 Cloudy OVC016 11 8     83%     1028.8 1029.4      
Nov 15 00:53 S 17 12.87 Cloudy OVC014 11 8     83%     1028.5 1029.2      
Nov 14 23:53 SSW 13 14.48 Cloudy OVC013 11 8     86%     1028.8 1029.5      
Nov 14 23:07 S 17 14.48 Cloudy OVC011 11 8     83%     1028.8        
Nov 14 22:53 S 15 14.48 Cloudy OVC009 11 8     83%     1028.8 1029.4      
Nov 14 21:53 S 13 12.87 Cloudy OVC009 11 8     83%     1028.8 1029.6      
Nov 14 20:53 SSE 9 12.87 Cloudy OVC009 11 8     83%     1028.5 1029.1      
Nov 14 20:45 S 11 14.48 Cloudy OVC009 11 8     83%     1028.1        
Nov 14 19:53 S 8 12.87 Cloudy OVC011 11 9     86%     1027.8 1028.6      
Nov 14 19:06 Calm 14.48 Cloudy OVC013 12 9     83%     1027.8        
Nov 14 18:53 SSW 8 14.48 Cloudy OVC015 12 9     83%     1027.8 1028.4      
Nov 14 17:53 SW 8 14.48 Cloudy OVC016 12 9     83%     1027.4 1028.1      
Nov 14 16:53 WSW 17 16.09 Cloudy OVC017 12 8     77%     1027.4 1028      
Nov 14 15:53 SW 13 16.09 Mostly Cloudy BKN015 BKN060 13 9     80%     1027.1 1027.8     0
Nov 14 14:53 WSW 13 16.09 Mostly Cloudy BKN015 BKN060 13 9     77%     1027.1 1027.6      
Nov 14 13:53 S 26 16.09 Mostly Cloudy BKN016 BKN080 BKN250 14 9     74%     1026.1 1026.8      
Nov 14 13:38 S 30 16.09 Mostly Cloudy FEW012 BKN018 BKN080 BKN250 13 10     80%     1026.1        
Nov 14 12:53 S 30 16.09 Mostly Cloudy SCT016 BKN080 BKN250 13 9     80%     1025.7 1026.4   0  
Nov 14 11:53 SSW 32 11.27 Mostly Cloudy and Windy FEW007 SCT016 BKN250 13 9     80%     1025.7 1026.3      
Nov 14 10:15 SSW 5 4.83 Light Rain and Fog/Mist FEW003 BKN017 OVC030 10 9     93%     1026.1   0    
Nov 14 10:01 WSW 11 4.02 Light Rain and Fog/Mist FEW015 BKN023 OVC030 10 8     89%     1025.7   0    
Nov 14 09:53 SW 17 3.22 Light Rain and Fog/Mist SCT023 OVC031 10 8     89%     1025.1 1025.8 0   0
Nov 14 09:46 SSW 17 3.22 Light Rain and Fog/Mist SCT023 OVC031 9 8     93% 7   1025.1   0    
Nov 14 08:53 S 15 4.83 Light Rain and Fog/Mist BKN024 BKN030 OVC038 10 7     83%     1024.4 1024.9 0    
Nov 14 07:53 SW 11 8.05 Light Rain BKN028 OVC037 9 5     74% 8   1024.7 1025.3 0    
Nov 14 07:29 S 11 11.27 Cloudy BKN028 OVC075 9 5     74% 8   1024.1        
Nov 14 06:53 S 11 14.48 Cloudy BKN030 BKN075 OVC150 9 4     71% 8   1023.7 1024.5 0 0  
Nov 14 05:53 SSW 22 16.09 Mostly Cloudy SCT033 SCT065 BKN150 10 3     61%     1024.1 1024.7      
Nov 14 04:53 S 21 14.48 Cloudy OVC040 9 3     66% 7   1024.4 1025.1      
Nov 14 03:53 SSW 11 14.48 Mostly Cloudy BKN046 9 3     66% 7   1024.4 1025.1     0
Nov 14 02:53 WSW 17 14.48 Mostly Cloudy FEW060 BKN160 8 2     63% 6   1024.7 1025.3      
Nov 14 01:53 SSE 13 16.09 Cloudy BKN048 BKN060 OVC070 8 3     68% 6   1025.4 1026.1      
Nov 14 00:53 WNW 5 16.09 Cloudy OVC050 8 3     71% 8   1026.1 1026.9   0  
Nov 13 23:53 SSW 13 16.09 Cloudy OVC050 9 3     66% 7   1026.4 1027.2 0    
Nov 13 22:53 WSW 5 16.09 Cloudy BKN060 OVC080 9 2     61% 8   1026.1 1026.9 0    
Nov 13 21:53 SSE 8 16.09 Cloudy OVC100 9 1     56% 8   1026.1 1027      
Nov 13 20:53 S 5 16.09 Cloudy BKN100 OVC150 9 1     54% 9   1026.1 1026.8      
Nov 13 19:53 SSW 9 16.09 Cloudy FEW090 BKN140 OVC200 9 1     54% 8   1026.1 1026.8      
Nov 13 18:53 S 15 16.09 Cloudy FEW090 BKN140 OVC200 10 0     50%     1026.1 1026.9      
Nov 13 17:53 S 18 16.09 Mostly Cloudy FEW090 SCT150 BKN200 11 -1     46%     1026.1 1026.7      
Nov 13 16:53 S 22 16.09 Mostly Cloudy FEW085 SCT160 BKN250 11 -1     44%     1026.4 1027      
Nov 13 15:53 S 17 16.09 Mostly Cloudy SCT180 BKN250 11 1     50%     1026.8 1027.4      
Nov 13 14:53 S 11 16.09 Mostly Cloudy FEW140 BKN180 12 -1     43%     1027.1 1027.7      
Nov 13 13:53 SSE 15 16.09 Mostly Cloudy FEW140 BKN200 12 1     48%     1027.4 1028.3      
Nov 13 12:53 SSE 13 16.09 Mostly Cloudy SCT140 BKN200 11 1     48%     1027.8 1028.5      
Nov 13 11:53 SSE 13 16.09 Mostly Cloudy BKN140 BKN200 11 2     54%     1028.1 1028.8      
Nov 13 10:53 S 13 16.09 Mostly Cloudy FEW180 BKN250 11 2     52%     1028.5 1029.2      
Nov 13 09:53 S 17 16.09 Partly Cloudy SCT220 9 1     54% 7   1028.5 1029.3      
Nov 13 08:53 S 8 16.09 Partly Cloudy SCT220 8 2     65% 7   1028.5 1029.2      
Nov 13 07:53 SSW 5 16.09 Mostly Cloudy BKN220 6 2     79% 5   1028.5 1029.3      
Nov 13 06:53 SSW 8 16.09 Mostly Cloudy BKN230 5 3     89% 3   1028.1 1028.9      
Nov 13 05:53 Calm 16.09 Partly Cloudy SCT250 7 3     74%     1027.8 1028.6      
Nov 13 04:53 SSE 5 16.09 Mostly Cloudy BKN250 6 2     79% 5   1027.4 1028.3      
Nov 13 03:53 Calm 16.09 Mostly Cloudy BKN250 7 1     65%     1027.8 1028.6      
Nov 13 02:53 SE 9 16.09 Mostly Cloudy BKN250 6 1     70% 4   1027.4 1028.1      
Nov 13 01:53 WSW 5 16.09 Partly Cloudy SCT250 7 -4     47% 6   1027.8 1028.3      
Nov 13 00:53 SSE 13 16.09 Partly Cloudy SCT250 9 -5     37% 7   1027.8 1028.4      
Nov 12 23:53 SE 13 16.09 Partly Cloudy SCT250 9 -5     36% 7   1028.1 1028.7      
Nov 12 22:53 ESE 18 16.09 Mostly Cloudy BKN250 11 -5     33%     1028.1 1028.6      
Nov 12 21:53 SE 13 16.09 Mostly Cloudy BKN250 10 -4     36%     1028.1 1028.9      
Nov 12 20:53 ESE 18 16.09 Mostly Cloudy BKN250 11 -5     33%     1027.4 1028.3      
Nov 12 19:53 ESE 21 16.09 Mostly Cloudy BKN250 11 -4     33%     1027.8 1028.7      
Nov 12 18:53 SE 17 16.09 Mostly Cloudy BKN250 11 -4     33%     1027.8 1028.6      
Nov 12 17:53 ESE 18 16.09 Mostly Cloudy BKN250 12 -4     32%     1028.1 1028.8      
Nov 12 16:53 ESE 13 16.09 Mostly Cloudy BKN250 13 -4     31%     1028.1 1028.8      
Nov 12 15:53 ESE 15 16.09 Mostly Cloudy BKN250 14 -4     27%     1028.1 1028.8      
Nov 12 14:53 E 15 16.09 Mostly Cloudy BKN250 16 -4     25%     1028.1 1028.6      
Nov 12 13:53 ESE 17 16.09 Mostly Cloudy BKN250 16 -4     25%     1028.5 1029      
Nov 12 12:53 9 16.09 Mostly Cloudy BKN250 15 -3     29%     1029.1 1029.6      
Nov 12 11:53 E 9 16.09 Mostly Cloudy BKN250 14 -3     31%     1029.1 1029.7      
Nov 12 10:53 E 9 16.09 Mostly Cloudy BKN250 13 -4     31%     1029.5 1030.1      
Nov 12 09:53 E 13 16.09 Mostly Cloudy FEW180 BKN250 11 -4     35%     1029.5 1030.2      
Nov 12 08:53 ENE 15 16.09 Mostly Cloudy BKN250 10 -4     36%     1029.8 1030.6      
Nov 12 07:53 ENE 15 16.09 Mostly Cloudy BKN250 9 -4     39% 7   1029.8 1030.8      
Nov 12 06:53 NE 13 16.09 Partly Cloudy SCT250 7 -3     47% 5   1029.5 1030.5      
Nov 12 05:53 E 11 16.09 Clear CLR 8 -4     42% 6   1029.5 1030.5      
Nov 12 04:53 ENE 13 16.09 Clear CLR 6 -2     55% 3   1029.8 1030.5      
Nov 12 03:53 ENE 11 16.09 Clear CLR 8 -4     43% 6   1029.8 1030.5      
Nov 12 02:53 ENE 17 16.09 Clear CLR 8 -2     49% 5   1029.8 1030.7      
Nov 12 01:53 NE 9 16.09 Clear CLR 7 -2     55% 5   1030.1 1030.9      
Nov 12 00:53 NE 15 16.09 Clear CLR 7 1     65% 4   1030.5 1031.2      
Nov 11 23:53 NNE 13 16.09 Clear CLR 7 1     63% 5   1031.2 1032.1      
Nov 11 22:53 NNE 15 16.09 Clear CLR 6 2     76% 3   1031.2 1032      
Nov 11 21:53 NNE 15 16.09 Clear CLR 6 2     73% 3   1030.8 1031.8      
Nov 11 20:53 NNE 18 16.09 Clear CLR 7 3     76% 3   1030.8 1031.7      
Nov 11 19:53 N 24 16.09 Partly Cloudy SCT200 6 3     79% 2   1030.8 1031.7      
Nov 11 18:53 N 21 16.09 Mostly Cloudy BKN200 7 2     73% 3   1030.8 1031.7      
Nov 11 17:53 N 21 16.09 Mostly Cloudy BKN200 7 2     68% 4   1030.1 1031.1      
Nov 11 16:53 N 21 16.09 Mostly Cloudy BKN200 8 2     68% 5   1030.1 1031.1      
Nov 11 15:53 N 17 16.09 Mostly Cloudy BKN200 9 3     68% 6   1030.1 1030.9      
Nov 11 14:53 N 15 16.09 Mostly Cloudy BKN210 9 3     66% 7   1030.1 1031      
Nov 11 13:53 N 21 16.09 Mostly Cloudy BKN210 9 4     69% 7   1030.1 1031.1      
Nov 11 12:53 N 22 16.09 Mostly Cloudy BKN220 10 4     66%     1030.5 1031.2      
Nov 11 11:53 N 22 16.09 Mostly Cloudy BKN220 8 3     68% 5   1030.8 1031.7      
Nov 11 10:53 NNE 26 16.09 Mostly Clear FEW005 FEW230 8 2     68% 4   1031.2 1032      
Nov 11 09:53 NNE 26 16.09 Partly Cloudy FEW005 SCT220 6 3     79% 2   1031.2 1031.9      
Nov 11 08:53 N 13 16.09 Partly Cloudy FEW004 SCT220 4 3     89% 1   1031.2 1032.1      
Nov 11 07:53 NNE 9 16.09 Partly Cloudy FEW001 SCT200 3 2     92% 0   1030.8 1031.9      
Nov 11 07:23 NE 9 8.05 Patchy Fog SCT001 3 2     92% 0   1030.8        
Nov 11 07:22 NE 11 9.66 Fog/Mist SCT001 3 2     92% 0   1030.8        
Nov 11 07:20 NNE 11 4.02 Fog/Mist BKN001 3 2     92% 0   1030.8        
Nov 11 07:13 NNE 9 0.2 Fog VV001 3 2     92% 0   1030.8        
Nov 11 06:53 NNE 5 0.2 Fog VV001 3 2     96% 1   1030.8 1031.6      
Nov 11 06:16 NNE 13 0.2 Fog VV001 3 2     96% -1   1030.5        
Nov 11 06:06 NNE 11 0.2 Fog VV001 3 2     96% 0   1030.5        
Nov 11 05:53 NNE 17 0.2 Fog VV001 3 2     96% -1   1030.5 1031.5      
Nov 11 05:38 NE 15 0.4 Fog VV001 3 2     96% -1   1030.5        
Nov 11 05:20 NE 11 0.1 Fog VV001 3 2     92% 0   1030.5        
Nov 11 04:53 NE 11 0.4 Fog VV001 2 1     92% -2   1030.1 1031.1      
Nov 11 04:46 NE 11 1.21 Fog/Mist SCT001 1 0     92% -2   1030.1        
Nov 11 03:53 NNE 8 8.05 Fog/Mist SCT001 2 0     88% -1   1030.1 1030.9      
Nov 11 02:53 Calm 8.05 Fog/Mist SCT002 3 2     89%     1030.5 1031.4      
Nov 11 01:55 ENE 5 11.27 Mostly Clear FEW002 3 2     92% 2   1030.8 1031.5      
Nov 11 01:53 ENE 5 11.27 Mostly Clear FEW002 3 2     92% 2   1030.8 1031.5      
Nov 11 01:42 ENE 5 2.41 Fog/Mist SCT002 4 3     93% 3   1030.8        
Nov 11 01:16 Calm 8.05 Fog/Mist FEW003 4 2     89%     1030.8        
Nov 11 00:53 Calm 8.05 Fog/Mist CLR 4 3     93%     1031.2 1032      
Nov 11 00:49 NNE 5 2.82 Fog/Mist CLR 4 3     93% 3   1031.2        
Nov 10 23:53 NE 5 11.27 Mostly Clear FEW017 5 3     89% 4   1031.2 1031.9      
Nov 10 23:27 N 8 12.87 Partly Cloudy SCT017 5 3     89% 3   1031.2        
Nov 10 22:53 NE 8 11.27 Mostly Cloudy BKN017 6 3     85% 4   1031.2 1032      
Nov 10 22:20 NE 8 14.48 Mostly Cloudy BKN017 6 3     85% 4   1031.2        
Nov 10 21:55 NNE 9 14.48 Partly Cloudy SCT017 6 3     82% 4   1030.8        
Nov 10 21:53 NNE 9 14.48 Mostly Cloudy BKN017 6 3     82% 4   1030.8 1031.7      
Nov 10 21:45 NNE 9 12.87 Partly Cloudy SCT017 4 3     89% 2   1030.8        
Nov 10 21:42 N 8 11.27 Mostly Cloudy BKN017 4 3     89% 3   1030.8        
Nov 10 20:53 NE 9 16.09 Mostly Clear FEW005 6 3     85% 4   1030.5 1031.4      
Nov 10 19:53 NE 9 16.09 Clear CLR 6 3     82% 4   1030.1 1031.1      
Nov 10 18:53 NNE 11 16.09 Clear CLR 7 3     76% 5   1029.8 1030.7      
Nov 10 17:53 N 11 16.09 Mostly Clear FEW023 7 3     79% 4   1029.5 1030.4      
Nov 10 16:53 NNE 11 16.09 Mostly Clear FEW019 8 3     71% 6   1029.1 1030      
Nov 10 15:53 NNE 18 16.09 Mostly Clear FEW019 9 3     63% 7   1029.1 1030.1      
Nov 10 14:53 NNE 22 16.09 Mostly Clear FEW019 9 3     63% 6   1029.5 1030.3      
Nov 10 14:06 N 17 16.09 Partly Cloudy FEW019 SCT025 10 3     63%     1029.8        
Nov 10 13:53 N 21 16.09 Mostly Cloudy SCT019 BKN025 9 3     66% 7   1029.8 1030.6      
Nov 10 12:53 N 11 16.09 Mostly Cloudy BKN016 BKN022 9 4     73% 7   1029.5 1030.4      
Nov 10 12:26 N 18 16.09 Mostly Cloudy BKN016 9 4     71% 6   1029.5        
Nov 10 11:53 N 18 16.09 Partly Cloudy FEW009 SCT013 9 4     71% 6   1029.5 1030.2      
Nov 10 11:22 NNE 15 14.48 Mostly Cloudy SCT009 BKN013 BKN030 8 4     76% 6   1029.5        
Nov 10 10:53 N 17 12.87 Cloudy BKN008 OVC020 8 4     79% 5   1029.8 1030.6      
Nov 10 10:24 N 13 12.87 Cloudy BKN009 OVC015 8 4     79% 6   1029.5        
Nov 10 09:53 NE 11 11.27 Cloudy FEW007 OVC016 7 4     82% 5   1029.5 1030.3      
Nov 10 08:53 NNE 21 9.66 Haze FEW006 BKN013 BKN033 7 4     82% 4   1029.1 1029.9      
Nov 10 07:53 N 8 9.66 Fog/Mist FEW006 SCT018 BKN033 6 4     92% 4   1028.8 1029.5      
Nov 10 06:53 NE 11 9.66 Fog/Mist SCT006 BKN020 OVC033 6 4     86% 4   1027.8 1028.5      
Nov 10 06:19 NNE 5 6.44 Fog/Mist OVC005 6 4     89% 5   1027.4        
Nov 10 06:02 ENE 5 4.02 Fog/Mist OVC004 6 4     92% 5   1027.4        
Nov 10 05:53 ENE 5 2.41 Fog/Mist OVC002 6 4     92% 5   1027.4 1028.4      
Nov 10 05:22 E 5 0.8 Fog OVC002 5 4     93% 4   1027.4        
Nov 10 05:12 ENE 8 4.02 Fog/Mist OVC002 6 4     89% 4   1027.4        
Nov 10 04:53 E 5 6.44 Fog/Mist OVC002 6 3     85% 5   1027.4 1028.3      
Nov 10 03:53 SE 5 9.66 Fog/Mist BKN004 OVC044 4 3     93% 3   1027.1 1028 0   0
Nov 10 02:53 SE 8 6.44 Fog/Mist SCT004 BKN022 BKN055 4 3     89% 3   1027.1 1028.1      
Nov 10 02:28 ESE 5 8.05 Fog/Mist SCT004 SCT040 OVC060 4 3     93% 3   1027.1        
Nov 10 01:53 SE 8 9.66 Fog/Mist BKN040 OVC060 4 3     93% 3   1027.1 1028 0    
Nov 10 01:41 SE 9 9.66 Fog/Mist FEW025 OVC042 4 3     93% 2   1027.1   0    
Nov 10 00:53 SE 8 11.27 Cloudy BKN005 OVC030 5 3     89% 3   1027.1 1028      
Nov 10 00:46 SE 8 11.27 Cloudy BKN005 OVC030 5 3     89% 3   1027.1        
Nov 10 00:17 SE 8 9.66 Fog/Mist FEW005 OVC033 4 3     93% 3   1027.1        
Nov 09 23:53 S 5 8.05 Fog/Mist BKN031 5 3     89% 4   1026.8 1027.8      
Nov 09 22:53 Calm 9.66 Fog/Mist SCT017 BKN055 5 3     89%     1027.1 1027.9      
Nov 09 21:53 S 8 11.27 Mostly Cloudy FEW008 BKN012 BKN022 4 3     93% 3   1026.8 1027.7      
Nov 09 21:11 Calm 14.48 Mostly Cloudy FEW008 BKN012 5 3     86%     1026.8        
Nov 09 20:53 Calm 12.87 Mostly Cloudy BKN012 5 3     89%     1026.8 1027.5      
Nov 09 20:10 Calm 14.48 Mostly Cloudy BKN010 5 3     89%     1026.4        
Nov 09 19:53 Calm 12.87 Mostly Cloudy SCT010 BKN044 6 3     85%     1026.4 1027.2      
Nov 09 18:53 W 5 16.09 Mostly Cloudy FEW026 BKN046 6 3     85% 5   1026.1 1027      
Nov 09 17:53 Calm 16.09 Mostly Cloudy SCT025 BKN048 6 3     79%     1025.7 1026.7      
Nov 09 17:42 Calm 16.09 Mostly Cloudy SCT025 BKN048 6 3     79%     1025.7        
Nov 09 16:53 Calm 16.09 Cloudy FEW009 OVC023 6 3     79%     1025.7 1026.6      
Nov 09 15:53 S 5 16.09 Cloudy FEW009 OVC026 6 3     85% 5   1025.7 1026.6     0
Nov 09 15:15 SSE 11 16.09 Cloudy OVC028 6 3     82% 3   1025.4        
Nov 09 14:53 SSE 8 16.09 Cloudy FEW009 OVC030 6 3     82% 4   1025.4 1026.2      
Nov 09 13:53 SE 8 16.09 Cloudy FEW007 BKN037 OVC050 5 3     86% 3   1025.4 1026.3      
Nov 09 12:53 SSE 13 16.09 Cloudy FEW007 BKN045 OVC060 5 2     82% 2   1025.4 1026.3 0 0  
Nov 09 11:53 ESE 17 11.27 Light Rain FEW005 BKN037 OVC055 5 2     82% 2   1025.1 1026.1 0    
Nov 09 10:53 NNE 9 11.27 Cloudy FEW004 BKN038 OVC080 5 3     89% 3   1026.4 1027.2 0    
Nov 09 10:46 8 11.27 Cloudy SCT004 OVC038 5 3     89% 3   1026.1   0    
Nov 09 10:17 NNE 5 9.66 Light Rain BKN006 OVC055 6 3     82% 5   1025.4   0    
Nov 09 09:53 Calm 9.66 Light Rain and Fog/Mist SCT005 BKN055 OVC095 5 3     89%     1025.7 1026.4 0   0
Nov 09 08:53 Calm 16.09 Cloudy FEW005 BKN095 OVC130 5 2     82%     1025.7 1026.7      
Nov 09 07:53 5 16.09 Cloudy FEW004 BKN090 OVC130 3 1     82% 2   1026.1 1026.9      
Nov 09 06:53 SE 15 16.09 Cloudy FEW002 BKN130 OVC200 3 0     79% 0   1026.1 1026.8      
Nov 09 05:53 Calm 16.09 Cloudy OVC160 2 -1     82%     1027.1 1028      
Nov 09 04:53 SSE 8 16.09 Mostly Cloudy BKN230 2 -1     82% -1   1027.4 1028.2      
Nov 09 03:53 SSE 5 16.09 Partly Cloudy SCT160 2 0     85% 1   1028.1 1029      
Nov 09 02:53 ESE 9 16.09 Clear CLR 3 0     82% 0   1029.1 1029.8      
Nov 09 01:53 ESE 8 12.87 Clear CLR 3 0     82% 1   1029.8 1030.5      
Nov 09 00:53 ENE 5 14.48 Clear CLR 4 1     79% 3   1030.5 1031.2      
Nov 08 23:53 Calm 16.09 Clear CLR 4 1     79%     1031.2 1031.9      
Nov 08 22:53 ENE 8 16.09 Clear CLR 5 2     82% 3   1031.5 1032.5      
Nov 08 21:53 Calm 16.09 Clear CLR 6 2     76%     1031.8 1032.8      
Nov 08 20:53 N 9 16.09 Clear CLR 5 1     76% 3   1032.2 1033.1      
Nov 08 19:53 NNE 9 16.09 Clear CLR 7 2     73% 5   1032.5 1033.5      
Nov 08 18:53 NNE 13 16.09 Mostly Clear FEW250 8 2     68% 6   1032.9 1033.9      
Nov 08 17:53 N 9 16.09 Mostly Clear FEW250 6 2     73% 4   1033.2 1034.2      
Nov 08 16:53 N 9 16.09 Partly Cloudy SCT250 7 2     71% 5   1033.2 1034.2      
Nov 08 15:53 N 11 16.09 Partly Cloudy SCT250 9 2     59% 8   1033.5 1034.5      
Nov 08 14:53 NNE 11 16.09 Partly Cloudy SCT250 10 1     54%     1033.5 1034.4      
Nov 08 13:53 N 8 16.09 Partly Cloudy FEW015 SCT250 10 2     58%     1033.9 1034.8      
Nov 08 12:53 ENE 5 16.09 Mostly Clear FEW009 FEW250 9 3     68% 8   1034.2 1035.2      
Nov 08 11:53 NE 5 16.09 Partly Cloudy FEW006 SCT250 8 3     71% 8   1034.9 1035.8      
Nov 08 11:40 NE 5 16.09 Partly Cloudy SCT006 SCT250 8 3     73% 7   1035.2        
Nov 08 10:53 NNE 8 16.09 Mostly Cloudy BKN006 7 3     76% 5   1035.2 1036.2      
Nov 08 10:29 NNE 8 14.48 Mostly Cloudy BKN006 7 3     74% 6   1035.2        
Nov 08 09:53 Calm 16.09 Patchy Fog SCT004 7 2     70%     1035.2 1036      
Nov 08 08:53 NE 8 11.27 Patchy Fog FEW003 6 3     82% 4   1034.9 1035.9      
Nov 08 07:53 ENE 5 9.66 Patchy Fog SCT005 4 1     79% 3   1034.9 1035.8      
Nov 08 06:53 Calm 16.09 Patchy Fog FEW005 4 1     79%     1034.6 1035.4      
Nov 08 06:39 Calm 16.09 Mostly Clear FEW005 3 0     82%     1034.6        
Nov 08 05:53 ESE 11 14.48 Cloudy BKN005 OVC010 4 1     79% 2   1034.6 1035.3      
Nov 08 04:53 SE 9 16.09 Cloudy OVC007 4 1     82% 2   1034.2 1035.2      
Nov 08 03:53 ESE 9 16.09 Partly Cloudy SCT007 3 1     82% 1   1034.2 1035.1      
Nov 08 02:53 ESE 9 16.09 Clear CLR 3 1     85% 1   1034.2 1034.9      
Nov 08 01:53 SE 8 16.09 Clear CLR 4 2     86% 2   1033.9 1034.9      
Nov 08 00:53 Calm 16.09 Clear CLR 4 2     83%     1033.9 1034.6      
Nov 07 23:53 ESE 9 16.09 Clear CLR 5 3     86% 3   1033.5 1034.3      
Nov 07 22:53 Calm 16.09 Clear CLR 6 3     82%     1033.2 1034      
Nov 07 21:53 WNW 8 16.09 Clear CLR 6 3     82% 4   1032.5 1033.4      
Nov 07 20:53 NE 13 16.09 Clear CLR 7 3     74% 5   1032.2 1032.8      
Nov 07 19:53 NNE 13 16.09 Clear CLR 8 3     71% 6   1031.5 1032.3      
Nov 07 18:53 NNE 15 16.09 Clear CLR 8 3     71% 5   1031.5 1032.2      
Nov 07 17:53 N 15 16.09 Mostly Clear FEW200 8 2     65% 6   1031.2 1031.9      
Nov 07 16:53 N 9 16.09 Partly Cloudy FEW030 SCT200 8 3     68% 7   1030.8 1031.7      
Nov 07 15:53 NNE 9 16.09 Partly Cloudy FEW028 SCT200 10 3     61%     1030.8 1031.6      
Nov 07 14:53 NE 15 16.09 Partly Cloudy SCT028 SCT200 11 3     61%     1030.5 1031.4      
Nov 07 13:53 9 16.09 Partly Cloudy FEW020 SCT028 SCT200 12 4     59%     1030.5 1031.3      
Nov 07 12:53 N 18 16.09 Partly Cloudy FEW018 SCT034 10 4     66%     1030.5 1031.2      
Nov 07 11:53 N 13 16.09 Mostly Cloudy FEW008 SCT017 BKN032 10 4     68%     1030.1 1030.9      
Nov 07 11:44 NNW 9 16.09 Mostly Cloudy FEW008 SCT017 BKN032 9 5     74% 8   1030.1        
Nov 07 11:19 N 13 16.09 Mostly Cloudy FEW008 SCT014 BKN025 9 6     80% 7   1030.1        
Nov 07 10:53 NNW 18 16.09 Mostly Cloudy FEW008 BKN012 BKN035 9 6     80% 6   1030.1 1030.9      
Nov 07 09:53 NNE 15 16.09 Mostly Cloudy FEW008 BKN013 BKN036 9 6     80% 7   1029.5 1030.2      
May 15 00:53 WSW 9 16.09 Mostly Clear FEW250 17 11     65%     1012.2 1012.4      
May 14 14:53 NW 13 16.09 Mostly Clear FEW050 FEW250 29 13     37%   28 1012.5 1013      
May 14 05:53 SSW 5 16.09 Mostly Clear FEW250 15 11     78%     1014.6 1014.8      
May 13 17:53 N 8 16.09 Mostly Clear FEW250 29 8     27%   28 1012.5 1012.8      
May 13 01:53 NE 11 16.09 Clear CLR 16 8     62%     1014.9 1015.3      
May 12 18:53 NNE 21 16.09 Mostly Clear FEW030 23 9     41%   23 1015.2 1015.6      
May 12 17:53 N 21 16.09 Mostly Clear FEW030 24 9     39%   24 1015.6 1016.1      
May 12 13:53 NNE 18 16.09 Clear   22 11     48%   22 1018.3 1018.7      
Jun 12 03:53 SW 11 16.09 Partly Cloudy SCT011 11 9     89%     1015.9 1016.5      
Jun 11 13:53 WSW 11 16.09 Partly Cloudy FEW040 SCT170 18 9     54%     1016.6 1017.2      
Jun 11 02:53 S 8 16.09 Mostly Cloudy SCT080 BKN180 12 9     86%     1015.6 1016.1      
Jun 10 15:53 WNW 17 16.09 Partly Cloudy SCT045 SCT200 19 5     40%     1011.2 1011.6      
Jun 07 10:53 W 11 16.09 Mostly Cloudy FEW120 BKN250 19 9     51%     1008.5 1008.9      
Jun 06 05:53 NNE 9 16.09 Partly Cloudy SCT140 SCT250 13 6     62%     1016.3 1016.8      
Jun 05 21:53 N 13 16.09 Mostly Cloudy BKN250 17 6     50%     1018 1018.4